Weather reports worldwide

Advertisment
Volkel, Netherlands (6375): temperature & dewpoint: 17.10.2020 06:00:00 - 23.10.2020 06:00:00 (CEST)Volkel, Netherlands (6375): temperature 5cm: 17.10.2020 06:00:00 - 23.10.2020 06:00:00 (CEST)Volkel, Netherlands (6375): wind speed & gusts: 17.10.2020 06:00:00 - 23.10.2020 06:00:00 (CEST)Volkel, Netherlands (6375): wind direction: 17.10.2020 06:00:00 - 23.10.2020 06:00:00 (CEST)Volkel, Netherlands (6375): reduced air pressure: 17.10.2020 06:00:00 - 23.10.2020 06:00:00 (CEST)Volkel, Netherlands (6375): visibility: 17.10.2020 06:00:00 - 23.10.2020 06:00:00 (CEST)Volkel, Netherlands (6375): precipitation: 17.10.2020 06:00:00 - 23.10.2020 06:00:00 (CEST)
Date & Time tt [°C] td [°C] tt 5cm [°C] ff [km/h] ff [kn] fx [km/h] fx [kn] dd ppp [hPa] vv [km] rr [mm]
23.10.2020 06:00:00 8,4 8,2 6,9 0 0 4 2 N 1011,3 0,3 0,0
23.10.2020 05:00:00 9,2 9,1 7,8 4 2 7 4 - 1011,5 0,2 0,0
23.10.2020 04:00:00 9,3 9,2 5,6 4 2 7 4 - 1011,9 0,3 0,0
23.10.2020 03:00:00 9,3 9,2 6,6 8 4 11 6 S 1012,3 0,5 0,0
23.10.2020 02:00:00 10,4 10,2 8,1 9 5 11 6 SW 1012,3 0,3 0,0
23.10.2020 01:00:00 10,6 10,4 7,6 8 4 11 6 SW 1012,2 0,3 0,0
23.10.2020 00:00:00 11,2 11,1 7,6 8 4 11 6 SW 1012,2 3,3 0,0
22.10.2020 23:00:00 11,7 11,5 7,1 5 3 11 6 SW 1012,0 2,5 0,0
22.10.2020 22:00:00 10,7 10,4 8,9 9 5 14 8 SW 1011,9 8 0,0
22.10.2020 21:00:00 11,4 11,1 8,9 9 5 14 8 SW 1011,5 9 0,0
22.10.2020 20:00:00 11,6 11,3 9,3 9 5 14 8 SW 1011,6 6 0,0
22.10.2020 19:00:00 13,4 12,4 12,4 11 6 18 10 WSW 1010,9 10 0,0
22.10.2020 18:00:00 15,1 13,5 14,5 16 9 22 12 SSW 1010,7 10 0,0
22.10.2020 17:00:00 15,5 13,8 15,3 15 8 32 18 SW 1010,6 10 0,1
22.10.2020 16:00:00 16,1 13,5 16,0 21 11 32 18 SSW 1010,6 10 0,0
22.10.2020 15:00:00 16,1 13,8 16,3 21 11 29 16 SSW 1010,9 10 0,0
22.10.2020 14:00:00 17,3 13,3 17,3 13 7 36 19 SW 1011,0 10 0,0
22.10.2020 13:00:00 17,1 12,4 17,3 21 11 36 19 SW 1011,5 10 0,0
22.10.2020 12:00:00 17,2 11,8 17,8 28 15 40 21 SW 1011,6 10 0,0
22.10.2020 11:00:00 15,4 11,1 15,4 24 13 36 19 SW 1011,5 10 0,0
22.10.2020 10:00:00 14,1 11,9 13,0 16 9 25 14 SSW 1011,4 10 0,0
22.10.2020 09:00:00 13,3 11,7 12,3 15 8 22 12 SSW 1010,4 10 0,0
22.10.2020 08:00:00 13,3 11,5 12,3 16 9 25 14 SSW 1009,4 10 0,0
22.10.2020 07:00:00 13,7 11,7 12,7 16 9 25 14 SSW 1009,2 10 0,0
22.10.2020 06:00:00 13,8 11,8 12,6 15 8 25 14 SSW 1008,8 10 0,0
22.10.2020 05:00:00 13,6 11,6 12,6 13 7 22 12 SSW 1008,9 10 0,0
22.10.2020 04:00:00 14,0 12,0 12,9 15 8 32 18 SSW 1008,8 10 0,0
22.10.2020 03:00:00 15,9 12,8 15,1 16 9 29 16 SSW 1008,6 10 0,0
22.10.2020 02:00:00 16,0 12,8 15,6 26 14 36 19 SW 1007,9 10 0,0
22.10.2020 01:00:00 15,6 12,7 15,0 16 9 40 21 SSW 1007,4 10 0,0
22.10.2020 00:00:00 17,3 12,1 16,6 22 12 43 23 WSW 1006,4 10 0,0
21.10.2020 23:00:00 17,6 11,7 16,7 29 16 54 29 SW 1005,4 10 0,0
21.10.2020 22:00:00 18,0 11,3 17,2 44 24 68 37 SW 1003,8 10 0,0
21.10.2020 21:00:00 18,5 11,3 17,7 42 23 65 35 SW 1002,7 10 0,0
21.10.2020 20:00:00 19,0 12,2 18,2 42 23 61 33 SW 1001,6 10 0,0
21.10.2020 19:00:00 19,5 12,4 18,6 39 21 58 31 SSW 1000,5 10 0,0
21.10.2020 18:00:00 19,7 12,4 18,8 35 19 65 35 SSW 999,6 10 0,0
21.10.2020 17:00:00 20,3 12,3 19,3 35 19 58 31 SSW 998,9 10 0,0
21.10.2020 16:00:00 20,1 12,3 19,3 31 17 61 33 SSW 998,6 10 0,0
21.10.2020 15:00:00 19,8 12,0 19,0 34 18 61 33 SSW 998,6 10 0,0
21.10.2020 14:00:00 18,1 12,4 17,8 22 12 36 19 SSE 999,1 10 0,0
21.10.2020 13:00:00 14,8 11,7 14,6 21 11 32 18 SSE 1000,5 10 0,0
21.10.2020 12:00:00 13,4 11,8 13,0 16 9 29 16 SE 1001,3 10 0,1
21.10.2020 11:00:00 12,8 11,6 12,5 21 11 32 18 S 1002,6 10 0,9
21.10.2020 10:00:00 12,4 11,5 12,0 16 9 25 14 SE 1002,7 10 0,6
21.10.2020 09:00:00 12,2 11,5 12,0 15 8 25 14 SSE 1003,4 10 1,6
21.10.2020 08:00:00 12,5 11,6 12,1 15 8 25 14 SSE 1003,5 10 0,3
21.10.2020 07:00:00 12,8 11,8 12,4 15 8 25 14 SSE 1003,7 10 0,5
21.10.2020 06:00:00 12,9 12,0 12,5 13 7 25 14 SSE 1004,0 10 0,9
21.10.2020 05:00:00 13,0 12,2 12,7 13 7 25 14 SSE 1004,6 10 0,3
21.10.2020 04:00:00 13,3 12,4 12,9 15 8 32 18 SSE 1005,3 10 0,4
21.10.2020 03:00:00 13,4 12,6 13,0 13 7 22 12 SSE 1005,8 10 0,4
21.10.2020 02:00:00 13,3 12,4 12,9 15 8 22 12 SSE 1006,3 10 0,2
21.10.2020 01:00:00 13,3 12,4 12,8 11 6 22 12 S 1006,8 10 0,2
21.10.2020 00:00:00 13,5 12,6 13,0 13 7 22 12 S 1007,5 10 0,3
20.10.2020 23:00:00 13,9 12,5 13,3 15 8 25 14 S 1007,7 10 0,1
20.10.2020 22:00:00 14,0 12,6 13,4 18 10 29 16 S 1007,7 10 0,0
20.10.2020 21:00:00 14,1 12,5 13,5 15 8 25 14 S 1007,7 10 0,0
20.10.2020 20:00:00 14,2 12,4 13,4 15 8 25 14 S 1007,8 10 0,0
20.10.2020 19:00:00 14,0 12,2 13,4 18 10 29 16 S 1007,9 10 0,3
20.10.2020 18:00:00 14,2 11,7 13,4 13 7 22 12 S 1007,8 10 0,1
20.10.2020 17:00:00 14,7 11,2 14,0 18 10 25 14 S 1007,9 10 0,0
20.10.2020 16:00:00 14,7 11,1 13,9 13 7 22 12 S 1008,5 10 0,0
20.10.2020 15:00:00 14,0 11,0 13,3 15 8 18 10 S 1008,1 10 0,0
20.10.2020 14:00:00 12,7 10,3 12,5 11 6 22 12 S 1008,2 10 0,2
20.10.2020 13:00:00 12,4 9,4 12,3 13 7 25 14 S 1008,6 10 0,0
20.10.2020 12:00:00 12,0 8,1 11,6 15 8 25 14 S 1008,7 10 0,0
20.10.2020 11:00:00 11,4 7,3 11,0 13 7 25 14 S 1008,6 10 0,0
20.10.2020 10:00:00 10,0 6,3 9,3 13 7 22 12 SSE 1008,6 10 0,0
20.10.2020 09:00:00 8,9 5,3 7,7 11 6 22 12 SSE 1008,7 10 0,0
20.10.2020 08:00:00 8,4 4,9 7,4 15 8 25 14 SSE 1008,4 10 0,0
20.10.2020 07:00:00 8,2 4,7 7,2 13 7 22 12 SE 1009,1 10 0,0
20.10.2020 06:00:00 7,9 4,4 7,0 11 6 25 14 SE 1009,4 10 0,0
20.10.2020 05:00:00 7,4 4,2 6,4 13 7 22 12 ESE 1010,6 10 0,0
20.10.2020 04:00:00 7,5 4,2 6,5 13 7 22 12 ESE 1011,3 10 0,0
20.10.2020 03:00:00 7,6 4,2 6,4 13 7 22 12 ESE 1012,1 10 0,0
20.10.2020 02:00:00 7,5 4,4 5,9 8 4 14 8 ESE 1013,2 10 0,0
20.10.2020 01:00:00 7,0 4,3 4,3 9 5 14 8 ESE 1013,8 10 0,0
20.10.2020 00:00:00 7,8 4,5 5,7 8 4 18 10 SE 1014,9 10 0,0
19.10.2020 23:00:00 8,6 4,9 6,6 11 6 18 10 SSE 1015,6 10 0,0
19.10.2020 22:00:00 8,2 5,5 5,5 8 4 14 8 SE 1016,6 10 0,0
19.10.2020 21:00:00 9,0 5,6 7,0 11 6 18 10 SE 1017,5 10 0,0
19.10.2020 20:00:00 9,4 5,1 6,2 9 5 14 8 ESE 1018,1 10 0,0
19.10.2020 19:00:00 9,9 5,4 6,8 8 4 14 8 SE 1018,0 10 0,0
19.10.2020 18:00:00 12,0 6,2 11,1 9 5 11 6 SE 1018,4 10 0,0
19.10.2020 17:00:00 12,3 6,0 11,8 9 5 18 10 SSE 1019,0 10 0,0
19.10.2020 16:00:00 13,2 6,1 14,2 9 5 18 10 S 1019,8 10 0,0
19.10.2020 15:00:00 12,6 6,8 12,8 9 5 18 10 S 1020,5 10 0,0
19.10.2020 14:00:00 11,8 8,0 12,4 13 7 18 10 S 1021,0 10 0,0
19.10.2020 13:00:00 11,0 7,7 11,8 11 6 18 10 S 1021,7 10 0,0
19.10.2020 12:00:00 10,2 8,3 10,5 9 5 18 10 S 1022,0 10 0,0
19.10.2020 11:00:00 9,3 8,0 9,7 8 4 11 6 S 1022,2 8 0,0
19.10.2020 10:00:00 8,9 8,0 8,6 5 3 14 8 SSW 1022,2 9 0,0
19.10.2020 09:00:00 8,2 7,7 8,3 5 3 11 6 S 1021,9 4,0 0,0
19.10.2020 08:00:00 7,4 7,3 6,5 4 2 11 6 - 1021,7 2,2 0,0
19.10.2020 07:00:00 6,8 6,6 5,2 8 4 11 6 SSW 1021,8 2,0 0,0
19.10.2020 06:00:00 7,5 7,2 5,6 4 2 11 6 - 1022,1 4,0 0,0
19.10.2020 05:00:00 8,0 7,5 7,5 8 4 11 6 SW 1022,2 4,5 0,0
19.10.2020 04:00:00 8,5 7,9 8,2 8 4 11 6 SW 1022,4 8 0,0
19.10.2020 03:00:00 8,7 8,1 8,4 8 4 11 6 SW 1022,4 10 0,0
19.10.2020 02:00:00 8,6 8,0 8,1 8 4 11 6 SW 1022,4 10 0,0
19.10.2020 01:00:00 9,0 8,5 8,7 9 5 11 6 SSW 1022,6 10 0,0
19.10.2020 00:00:00 8,6 8,1 8,2 8 4 11 6 SW 1022,5 7 0,0
18.10.2020 23:00:00 9,3 8,5 7,4 4 2 11 6 W 1022,4 3,2 0,0
18.10.2020 22:00:00 9,6 8,7 9,1 5 3 11 6 WSW 1022,3 10 0,0
18.10.2020 21:00:00 9,8 8,7 9,3 8 4 22 12 WSW 1022,3 10 0,1
18.10.2020 20:00:00 10,4 8,8 10,0 11 6 18 10 WSW 1022,4 10 0,0
18.10.2020 19:00:00 10,5 9,3 10,1 9 5 14 8 WSW 1022,0 4,4 0,3
18.10.2020 18:00:00 11,5 8,8 11,2 8 4 14 8 W 1021,6 10 0,0
18.10.2020 17:00:00 11,9 8,3 11,7 9 5 18 10 W 1021,6 10 0,0
18.10.2020 16:00:00 12,0 8,2 11,9 13 7 22 12 W 1021,8 10 0,0
18.10.2020 15:00:00 12,7 8,6 13,3 13 7 22 12 WSW 1021,7 10 0,0
18.10.2020 14:00:00 12,7 9,1 13,4 11 6 22 12 WSW 1022,1 10 0,0
18.10.2020 13:00:00 11,6 8,3 12,7 13 7 22 12 WSW 1022,5 9 0,0
18.10.2020 12:00:00 10,6 8,9 10,9 13 7 18 10 WSW 1022,4 6 0,0
18.10.2020 11:00:00 9,5 8,2 9,7 15 8 18 10 WSW 1022,2 5 0,0
18.10.2020 10:00:00 8,5 7,5 8,1 15 8 18 10 SW 1022,2 4,1 0,0
18.10.2020 09:00:00 7,6 6,8 7,1 11 6 14 8 SW 1021,8 3,3 0,0
18.10.2020 08:00:00 6,7 6,2 6,4 9 5 11 6 SW 1021,4 2,6 0,0
18.10.2020 07:00:00 6,6 6,2 5,8 8 4 11 6 SW 1021,5 3,1 0,0
18.10.2020 06:00:00 5,5 5,3 3,8 9 5 11 6 SW 1021,5 1,6 0,0
18.10.2020 05:00:00 3,5 3,3 1,1 8 4 11 6 WSW 1021,6 1,0 0,0
18.10.2020 04:00:00 3,5 3,2 0,8 5 3 7 4 SW 1021,7 3,0 0,0
18.10.2020 03:00:00 4,9 4,7 0,7 4 2 7 4 WSW 1021,8 1,9 0,0
18.10.2020 02:00:00 4,8 4,4 1,3 4 2 4 2 WSW 1021,8 1,3 0,0
18.10.2020 01:00:00 6,6 6,4 2,9 2 1 4 2 - 1021,8 6 0,0
18.10.2020 00:00:00 7,3 6,4 5,4 4 2 7 4 SW 1021,7 7 0,0
17.10.2020 23:00:00 7,9 6,8 7,0 2 1 4 2 SSE 1021,8 9 0,0
17.10.2020 22:00:00 8,1 6,8 7,2 4 2 4 2 - 1021,8 10 0,0
17.10.2020 21:00:00 7,9 6,6 6,9 2 1 4 2 W 1021,5 10 0,0
17.10.2020 20:00:00 8,3 6,5 7,5 2 1 7 4 WNW 1021,4 10 0,0
17.10.2020 19:00:00 9,1 6,3 8,6 5 3 11 6 ESE 1020,9 10 0,0
17.10.2020 18:00:00 10,1 7,4 9,9 2 1 4 2 NNE 1020,8 10 0,0
17.10.2020 17:00:00 10,7 6,4 10,6 4 2 7 4 NNW 1020,7 10 0,0
17.10.2020 16:00:00 11,3 5,6 11,8 2 1 4 2 - 1020,9 10 0,0
17.10.2020 15:00:00 11,2 5,6 12,0 2 1 7 4 - 1020,8 10 0,0
17.10.2020 14:00:00 11,8 5,8 13,1 4 2 11 6 - 1020,8 10 0,0
17.10.2020 13:00:00 10,7 5,0 12,2 2 1 7 4 - 1021,3 10 0,0
17.10.2020 12:00:00 10,2 5,7 10,7 2 1 4 2 - 1021,4 10 0,0
17.10.2020 11:00:00 9,4 5,6 9,6 4 2 7 4 - 1021,2 10 0,0
17.10.2020 10:00:00 7,9 6,6 7,6 0 0 7 4 N 1021,4 10 0,0
17.10.2020 09:00:00 6,9 6,0 6,4 5 3 7 4 NW 1021,2 10 0,0
17.10.2020 08:00:00 6,3 5,5 5,6 2 1 4 2 WSW 1021,0 10 0,0
17.10.2020 07:00:00 6,3 5,3 5,6 4 2 4 2 N 1020,9 10 0,0
17.10.2020 06:00:00 6,3 5,3 5,6 4 2 4 2 N 1021,2 10 0,0

tt = temperature
td = dewpoint
tt 5cm = temperature 5cm
ff = wind speed
fx = gusts
dd = wind direction
ppp = reduced air pressure
vv = visibility
rr = precipitation

Next stations